Regional Weather Roundup
Issued by NWS

Current Version | Previous Version | Text Only | Print | Product List | Glossary On
Versions: 1 2 3 4 5 6 7 8 9 10 11 12 13 14 15 16 17 18 19 20 21 22 23 24 25 26 27 28 29 30 31 32 33 34 35 36 37 38 39 40 41 42 43 44 45 46 47 48 49 50
471
ASUS44 KJAN 281910
RWRMS

MISSISSIPPI HOURLY WEATHER ROUNDUP
NATIONAL WEATHER SERVICE JACKSON MS
200 PM CDT TUE MAR 28 2017

NOTE: "FAIR: INDICATES FEW OR NO CLOUDS BELOW 12,000 FEET WITH NO
SIGNIFICANT WEATHER AND/OR OBSTRUCTIONS TO VISIBILITY.

MSZ001>002-007>008-010>013-018>021-025>028-034>036-282000-
NORTHWEST MISSISSIPPI

CITY           SKY/WX    TMP DP  RH WIND       PRES   REMARKS
BATESVILLE     FAIR      80  58  48 CALM      29.97F
CLEVELAND      FAIR      80  62  55 N6        29.95F
GREENWOOD      SUNNY     79  65  62 S8        29.96F
GREENVILLE     PTSUNNY   79  64  60 CALM      29.95F
OLIVE BRANCH   MOSUNNY  N/A N/A N/A E6        29.99F
OXFORD         FAIR      77  57  50 W5        29.99F
TUNICA         MOCLDY    73  59  60 NE5       29.98F
WINONA         MOCLDY    78  65  63 SW5       29.96F
$$

MSZ003>006-009-014>017-022>024-029>033-037>039-282000-
NORTHEAST MISSISSIPPI

CITY           SKY/WX    TMP DP  RH WIND       PRES   REMARKS
COLUMBUS AFB   PTSUNNY   80  64  57 W8        29.96F
CORINTH        FAIR      72  57  60 CALM      30.00F
GOLDN TRIANGLE PTSUNNY   81  63  54 CALM      29.93F
STARKVILLE     MOCLDY    79  63  57 N5        29.98F
TUPELO         MOSUNNY   77  60  55 MISG      29.97F
$$

MSZ040-058-282000-
CENTRAL MISSISSIPPI

CITY           SKY/WX    TMP DP  RH WIND       PRES   REMARKS
JACKSON INTL   MOSUNNY   81  64  56 S7        29.96F
JACKSON HAWKNS MOSUNNY   82  63  52 VRB5      29.97F
MADISON        FAIR      79  63  57 CALM      29.97F
MERIDIAN KEY   MOSUNNY   83  64  52 S9        29.98F
MERIDIAN NAS   PTSUNNY   83  60  45 VRB7G16   29.98F
RAYMOND        FAIR      81  64  57 MISG      29.96F
VICKSBURG VKS  CLEAR     82  66  57 SW8       29.93F
$$

MSZ059>079-282000-
SOUTH MISSISSIPPI

CITY           SKY/WX    TMP DP  RH WIND       PRES   REMARKS
BROOKHAVEN     FAIR      84  66  54 S8        29.99F
HATTIESBURG    MOSUNNY   83  63  50 S5        29.98F
MCCOMB         MOSUNNY   81  61  50 S9        29.97F
NATCHEZ        NOT AVBL
PINE BELT      PTSUNNY   82  63  51 SW6       29.99F
$$

MSZ080>082-282000-
COASTAL MISSISSIPPI

CITY           SKY/WX    TMP DP  RH WIND       PRES   REMARKS
BAY ST LOUIS   MOSUNNY   81  63  54 SE13      29.99F
BILOXI         SUNNY     79  70  73 S10       30.00F
PASCAGOULA     SUNNY     80  66  62 VRB7      30.01F
GULFPORT       MOSUNNY   80  68  66 S12       30.00F
$$

LAZ007>009-015>016-023>026-282000-
NORTHEAST LOUISIANA

CITY           SKY/WX    TMP DP  RH WIND       PRES   REMARKS
BASTROP        MOCLDY    82  64  55 S5        29.95F
TALLULAH/VBURG MOSUNNY   82  64  54 S7        29.95F
VIDALIA        FAIR      82  65  56 S8        29.94F
$$




USA.gov is the U.S. government's official web portal to all federal, state and local government web resources and services.